Cando, ND

6:31 PM CDT on July 20, 2017 (GMT -0500)
Cando

Weather History for K9D7 - September, 2012

Change the Weather History Date:

Sunday, September 2, 2012

  Actual Average (KDVL) Record (KDVL)
Temperature  
Mean Temperature 64 °F -  
Max Temperature 77 °F 72 °F 95 °F (1960)
Min Temperature 50 °F 50 °F 36 °F (1952)
Degree Days  
Heating Degree Days 2    
Growing Degree Days 14 (Base 50)    
Moisture  
Dew Point 60 °F    
Average Humidity 78    
Maximum Humidity 100    
Minimum Humidity 36    
Precipitation  
Precipitation 0.01 in - - ()
Sea Level Pressure  
Sea Level Pressure 29.79 in    
Wind  
Wind Speed 10 mph (WSW)    
Max Wind Speed 21 mph    
Max Gust Speed 26 mph    
Visibility 10 miles    
Events Rain , Thunderstorm    
Averages and records for this station are not official NWS values.
T = Trace of Precipitation, MM = Missing Value Source: NWS Daily Summary

Daily Weather History Graph

Daily Weather History Graph

Search for Another Location

Airport or City:

Trip Planner

Search our weather history database for the weather conditions in past years. The results will help you decide how hot, cold, wet, or windy it might be!

Date:

Astronomy

Sep. 02, 2012 Rise Set
Actual Time 6:56 AM CDT 8:15 PM CDT
Civil Twilight 6:23 AM CDT 8:47 PM CDT
Nautical Twilight 5:44 AM CDT 9:26 PM CDT
Astronomical Twilight 5:02 AM CDT 10:08 PM CDT
Moon 8:45 PM CDT (9/2) 9:22 AM CDT (9/2)
Length of Visible Light 14h 23m
Length of Day
13h 19m
Waning Gibbous, 95% of the Moon is Illuminated
Sep 2
Waning Gibbous
Sep 8
Last Quarter
Sep 15
New
Sep 22
First Quarter
Sep 29
Full

Hourly Weather History & Observations

Time (CDT) Temp. Dew Point Humidity Pressure Visibility Wind Dir Wind Speed Gust Speed Precip Events Conditions
12:15 AM 75.2 °F 62.6 °F 65% 29.75 in 10.0 mi South 16.1 mph 24.2 mph N/A   Clear
12:35 AM 75.2 °F 62.6 °F 65% 29.78 in 10.0 mi SSW 11.5 mph 19.6 mph N/A   Clear
12:55 AM 75.2 °F 62.6 °F 65% 29.76 in 10.0 mi SSE 10.4 mph - N/A   Clear
1:15 AM 73.4 °F 64.4 °F 73% 29.75 in 10.0 mi SSE 12.7 mph - N/A   Partly Cloudy
1:35 AM 75.2 °F 64.4 °F 69% 29.74 in 8.0 mi SSE 20.7 mph 25.3 mph N/A   Clear
1:55 AM 71.6 °F 66.2 °F 83% 29.75 in 3.0 mi South 13.8 mph 23.0 mph N/A Thunderstorm Unknown
2:15 AM 73.4 °F 66.2 °F 78% 29.75 in 10.0 mi SSE 12.7 mph 17.3 mph N/A   Partly Cloudy
2:35 AM 71.6 °F 66.2 °F 83% 29.74 in 9.0 mi SSE 10.4 mph 16.1 mph N/A   Partly Cloudy
2:55 AM 71.6 °F 66.2 °F 83% 29.74 in 10.0 mi SSE 11.5 mph - N/A   Clear
3:15 AM 71.6 °F 66.2 °F 83% 29.74 in 10.0 mi SSE 11.5 mph - N/A Thunderstorm Partly Cloudy
3:35 AM 71.6 °F 66.2 °F 83% 29.72 in 10.0 mi SSE 11.5 mph 19.6 mph N/A   Clear
3:55 AM 69.8 °F 66.2 °F 88% 29.72 in 10.0 mi SSE 9.2 mph - N/A Thunderstorm Clear
4:15 AM 69.8 °F 64.4 °F 83% 29.72 in 10.0 mi SSE 9.2 mph - N/A   Clear
4:35 AM 68.0 °F 66.2 °F 94% 29.72 in 10.0 mi South 6.9 mph - N/A   Clear
4:55 AM 66.2 °F 64.4 °F 94% 29.73 in 10.0 mi South 5.8 mph - N/A   Clear
5:15 AM 68.0 °F 66.2 °F 94% 29.72 in 10.0 mi South 6.9 mph - N/A   Clear
5:35 AM 66.2 °F 64.4 °F 94% 29.73 in 10.0 mi SSW 6.9 mph - N/A   Clear
5:55 AM 66.2 °F 64.4 °F 94% 29.73 in 10.0 mi SW 3.5 mph - N/A   Clear
6:15 AM 66.2 °F 64.4 °F 94% 29.72 in 10.0 mi Calm Calm - N/A   Clear
6:35 AM 64.4 °F 64.4 °F 100% 29.74 in 8.0 mi SW 5.8 mph - N/A   Clear
6:55 AM 64.4 °F 64.4 °F 100% 29.75 in 9.0 mi South 4.6 mph - N/A   Clear
7:15 AM 66.2 °F 64.4 °F 94% 29.73 in 10.0 mi Calm Calm - N/A   Partly Cloudy
7:35 AM 64.4 °F 64.4 °F 100% 29.72 in 8.0 mi Calm Calm - N/A   Clear
7:55 AM 64.4 °F 64.4 °F 100% 29.74 in 8.0 mi Calm Calm - N/A   Clear
8:15 AM 64.4 °F 64.4 °F 100% 29.75 in 8.0 mi WSW 3.5 mph - N/A   Clear
8:35 AM 66.2 °F 66.2 °F 100% 29.75 in 8.0 mi Calm Calm - N/A   Partly Cloudy
8:55 AM 68.0 °F 66.2 °F 94% 29.75 in 10.0 mi West 5.8 mph - N/A   Scattered Clouds
9:15 AM 68.0 °F 64.4 °F 88% 29.75 in 10.0 mi NW 3.5 mph - N/A   Partly Cloudy
9:35 AM 68.0 °F 66.2 °F 94% 29.76 in 10.0 mi WNW 11.5 mph - N/A   Clear
9:55 AM 68.0 °F 64.4 °F 88% 29.77 in 10.0 mi NW 13.8 mph - N/A   Clear
10:15 AM 69.8 °F 64.4 °F 83% 29.79 in 10.0 mi WNW 5.8 mph - N/A   Clear
10:35 AM 69.8 °F 64.4 °F 83% 29.79 in 10.0 mi NW 6.9 mph - N/A   Clear
10:55 AM 68.0 °F 64.4 °F 88% 29.80 in 10.0 mi WNW 9.2 mph - N/A   Clear
11:15 AM 68.0 °F 64.4 °F 88% 29.79 in 10.0 mi NW 6.9 mph - N/A   Partly Cloudy
11:35 AM 66.2 °F 64.4 °F 94% 29.79 in 5.0 mi NW 9.2 mph - 0.01 in Rain Light Rain
11:55 AM 66.2 °F 64.4 °F 94% 29.79 in 10.0 mi Calm Calm - 0.01 in   Mostly Cloudy
12:15 PM 68.0 °F 64.4 °F 88% 29.79 in 10.0 mi NW 4.6 mph - N/A   Mostly Cloudy
12:35 PM 69.8 °F 66.2 °F 88% 29.81 in 10.0 mi West 15.0 mph - N/A   Mostly Cloudy
12:55 PM 68.0 °F 64.4 °F 88% 29.83 in 10.0 mi West 19.6 mph 26.5 mph N/A   Mostly Cloudy
1:15 PM 66.2 °F 64.4 °F 94% 29.83 in 8.0 mi WNW 15.0 mph 20.7 mph N/A Rain Light Rain
1:35 PM 66.2 °F 62.6 °F 88% 29.84 in 10.0 mi West 13.8 mph - N/A   Mostly Cloudy
1:55 PM 64.4 °F 62.6 °F 94% 29.85 in 9.0 mi West 10.4 mph - N/A   Overcast
2:15 PM 64.4 °F 62.6 °F 94% 29.84 in 9.0 mi WNW 9.2 mph - N/A   Overcast
2:35 PM 64.4 °F 62.6 °F 94% 29.83 in 9.0 mi WNW 5.8 mph - N/A   Scattered Clouds
2:55 PM 66.2 °F 62.6 °F 88% 29.83 in 10.0 mi West 8.1 mph - N/A   Clear
3:15 PM 68.0 °F 62.6 °F 83% 29.82 in 10.0 mi West 9.2 mph - N/A   Scattered Clouds
3:35 PM 73.4 °F 62.6 °F 69% 29.81 in 10.0 mi West 9.2 mph - N/A   Partly Cloudy
3:55 PM 73.4 °F 62.6 °F 69% 29.81 in 10.0 mi WSW 9.2 mph - N/A   Clear
4:15 PM 75.2 °F 59.0 °F 57% 29.81 in 10.0 mi West 11.5 mph - N/A   Clear
4:35 PM 77.0 °F 55.4 °F 47% 29.81 in 10.0 mi West 16.1 mph 20.7 mph N/A   Clear
4:55 PM 77.0 °F 57.2 °F 50% 29.81 in 10.0 mi West 15.0 mph 20.7 mph N/A   Clear
5:15 PM 77.0 °F 55.4 °F 47% 29.81 in 10.0 mi West 15.0 mph - N/A   Clear
5:35 PM 77.0 °F 55.4 °F 47% 29.81 in 10.0 mi West 17.3 mph - N/A   Clear
5:55 PM 77.0 °F 53.6 °F 44% 29.81 in 10.0 mi WNW 13.8 mph - N/A   Clear
6:15 PM 77.0 °F 53.6 °F 44% 29.81 in 10.0 mi West 15.0 mph 18.4 mph N/A   Clear
6:35 PM 77.0 °F 48.2 °F 36% 29.82 in 10.0 mi West 10.4 mph - N/A   Clear
6:55 PM 77.0 °F 50.0 °F 39% 29.82 in 10.0 mi West 6.9 mph - N/A   Clear
7:15 PM 75.2 °F 50.0 °F 41% 29.82 in 10.0 mi WSW 6.9 mph - N/A   Clear
7:35 PM 73.4 °F 50.0 °F 44% 29.82 in 10.0 mi WSW 5.8 mph - N/A   Clear
7:55 PM 71.6 °F 50.0 °F 46% 29.82 in 10.0 mi SW 8.1 mph - N/A   Clear
8:15 PM 68.0 °F 50.0 °F 52% 29.82 in 10.0 mi SW 6.9 mph - N/A   Clear
8:35 PM 64.4 °F 50.0 °F 59% 29.83 in 10.0 mi SSW 6.9 mph - N/A   Clear
8:55 PM 64.4 °F 50.0 °F 59% 29.83 in 10.0 mi SSW 5.8 mph - N/A   Clear
9:15 PM 59.0 °F 50.0 °F 72% 29.84 in 10.0 mi SW 4.6 mph - N/A   Clear
9:35 PM 57.2 °F 48.2 °F 72% 29.85 in 10.0 mi SW 8.1 mph - N/A   Clear
9:55 PM 57.2 °F 48.2 °F 72% 29.86 in 10.0 mi SW 6.9 mph - N/A   Clear
10:15 PM 55.4 °F 48.2 °F 77% 29.86 in 10.0 mi WSW 6.9 mph - N/A   Clear
10:35 PM 53.6 °F 48.2 °F 82% 29.86 in 10.0 mi WSW 6.9 mph - N/A   Clear
10:55 PM 53.6 °F 46.4 °F 77% 29.86 in 10.0 mi WSW 8.1 mph - N/A   Clear
11:15 PM 50.0 °F 46.4 °F 87% 29.86 in 10.0 mi WSW 6.9 mph - N/A   Clear
11:35 PM 50.0 °F 46.4 °F 87% 29.86 in 10.0 mi West 6.9 mph - N/A   Clear
11:55 PM 50.0 °F 46.4 °F 87% 29.86 in 10.0 mi West 6.9 mph - N/A   Clear